CCM96LD LFPO-LFKB

Flight info

Callsign CCM96LD
Flight time 1h 39m
Altitude 35000
Route LATRA DCT LAMUT DCT UTUVA DCT TITVA DCT NOQAS DCT OTROT DCT RETNO DCT KOLON DCT NARTI UP991 NIRDO
Aircraft A320/M-SDE3FGHIRWY/LB1

Departure

Time 2026-04-16 10:48
Airport Paris-Orly Airport (LFPO)

Arrival

Time 2026-04-16 12:27
Airport Bastia-Poretta International airport (LFKB)
Time Latitude Longitude Altitude Speed Heading
2026-04-16 10:12 48.72998 2.35708 299 ft 0 kts 204°
2026-04-16 10:40 48.73001 2.35711 293 ft 3 kts 203°
2026-04-16 10:41 48.73026 2.35722 296 ft 4 kts 179°
2026-04-16 10:41 48.73052 2.35713 299 ft 4 kts 148°
2026-04-16 10:41 48.73069 2.35695 298 ft 4 kts 211°
2026-04-16 10:41 48.73068 2.35682 297 ft 0 kts 262°
2026-04-16 10:44 48.73066 2.35658 295 ft 7 kts 264°
2026-04-16 10:45 48.73118 2.35590 295 ft 15 kts 359°
2026-04-16 10:45 48.73212 2.35703 296 ft 20 kts 61°
2026-04-16 10:45 48.73278 2.35882 298 ft 19 kts 61°
2026-04-16 10:45 48.73345 2.36043 294 ft 17 kts 48°
2026-04-16 10:46 48.73443 2.36090 298 ft 14 kts
2026-04-16 10:46 48.73519 2.36018 297 ft 14 kts 289°
2026-04-16 10:46 48.73497 2.35926 296 ft 0 kts 241°
2026-04-16 10:47 48.73494 2.35918 297 ft 5 kts 241°
2026-04-16 10:47 48.73370 2.35569 294 ft 74 kts 242°
2026-04-16 10:48 48.73024 2.34597 295 ft 133 kts 242°
2026-04-16 10:48 48.72513 2.33157 401 ft 168 kts 242°
2026-04-16 10:48 48.71933 2.31564 950 ft 179 kts 239°
2026-04-16 10:48 48.71279 2.29862 1470 ft 195 kts 237°
2026-04-16 10:49 48.70537 2.28041 1971 ft 212 kts 235°
2026-04-16 10:49 48.69692 2.26082 2369 ft 234 kts 235°
2026-04-16 10:49 48.68768 2.23982 3098 ft 242 kts 234°
2026-04-16 10:49 48.67827 2.21844 3936 ft 246 kts 236°
2026-04-16 10:50 48.66837 2.19710 4766 ft 250 kts 227°
2026-04-16 10:50 48.65360 2.18396 5510 ft 259 kts 193°
2026-04-16 10:50 48.63555 2.18628 6281 ft 269 kts 162°
2026-04-16 10:50 48.61839 2.19823 7064 ft 275 kts 154°
2026-04-16 10:51 48.60166 2.21270 7830 ft 278 kts 152°
2026-04-16 10:51 48.58496 2.22784 8603 ft 282 kts 152°
2026-04-16 10:51 48.56802 2.24294 9387 ft 284 kts 152°
2026-04-16 10:51 48.55074 2.25779 10168 ft 287 kts 153°
2026-04-16 10:52 48.53287 2.27262 10594 ft 303 kts 154°
2026-04-16 10:52 48.51358 2.28816 10770 ft 326 kts 154°
2026-04-16 10:52 48.49284 2.30462 10916 ft 348 kts 154°
2026-04-16 10:52 48.47027 2.31986 11242 ft 360 kts 163°
2026-04-16 10:53 48.44624 2.33151 11835 ft 365 kts 165°
2026-04-16 10:53 48.42191 2.34328 12466 ft 369 kts 164°
2026-04-16 10:53 48.39726 2.35523 13089 ft 373 kts 164°
2026-04-16 10:53 48.37242 2.36728 13704 ft 378 kts 164°
2026-04-16 10:54 48.34729 2.37945 14294 ft 381 kts 165°
2026-04-16 10:54 48.32224 2.39154 14860 ft 385 kts 165°
2026-04-16 10:54 48.29630 2.40400 15428 ft 388 kts 165°
2026-04-16 10:54 48.27089 2.41635 15975 ft 391 kts 164°
2026-04-16 10:55 48.24506 2.42968 16538 ft 395 kts 163°
2026-04-16 10:55 48.21901 2.44367 17083 ft 398 kts 162°
2026-04-16 10:55 48.19289 2.45788 17650 ft 402 kts 162°
2026-04-16 10:55 48.16649 2.47225 18192 ft 405 kts 162°
2026-04-16 10:56 48.13984 2.48662 18712 ft 409 kts 163°
2026-04-16 10:56 48.11293 2.50098 19166 ft 411 kts 163°
2026-04-16 10:56 48.08587 2.51534 19620 ft 414 kts 163°
2026-04-16 10:56 48.05857 2.52951 20070 ft 417 kts 163°
2026-04-16 10:57 48.03099 2.54328 20505 ft 419 kts 164°
2026-04-16 10:57 48.00316 2.55683 20949 ft 422 kts 164°
2026-04-16 10:57 47.97511 2.57035 21363 ft 425 kts 164°
2026-04-16 10:57 47.94690 2.58397 21782 ft 427 kts 164°
2026-04-16 10:58 47.91853 2.59777 22181 ft 430 kts 164°
2026-04-16 10:58 47.89001 2.61170 22574 ft 433 kts 164°
2026-04-16 10:58 47.86174 2.62557 22952 ft 435 kts 164°
2026-04-16 10:58 47.83291 2.63973 23312 ft 438 kts 164°
2026-04-16 10:59 47.80390 2.65397 23670 ft 440 kts 164°
2026-04-16 10:59 47.77470 2.66826 23984 ft 443 kts 164°
2026-04-16 10:59 47.74538 2.68256 24276 ft 445 kts 164°
2026-04-16 10:59 47.71589 2.69694 24571 ft 447 kts 164°
2026-04-16 11:00 47.68624 2.71138 24857 ft 449 kts 164°
2026-04-16 11:00 47.65648 2.72586 25140 ft 451 kts 164°
2026-04-16 11:00 47.62653 2.74040 25412 ft 454 kts 164°
2026-04-16 11:00 47.59652 2.75495 25677 ft 456 kts 164°
2026-04-16 11:01 47.56631 2.76959 25942 ft 458 kts 164°
2026-04-16 11:01 47.53600 2.78427 26199 ft 459 kts 164°
2026-04-16 11:01 47.50554 2.79902 26450 ft 461 kts 164°
2026-04-16 11:01 47.47494 2.81383 26687 ft 463 kts 164°
2026-04-16 11:02 47.44429 2.82864 26930 ft 465 kts 164°
2026-04-16 11:02 47.41348 2.84348 27143 ft 467 kts 164°
2026-04-16 11:02 47.38252 2.85836 27379 ft 468 kts 164°
2026-04-16 11:02 47.35189 2.87304 27589 ft 470 kts 164°
2026-04-16 11:03 47.32076 2.88795 27793 ft 472 kts 164°
2026-04-16 11:03 47.28948 2.90289 28007 ft 473 kts 164°
2026-04-16 11:03 47.22675 2.93281 28527 ft 473 kts 164°
2026-04-16 11:04 47.19543 2.94776 28808 ft 473 kts 164°
2026-04-16 11:04 47.16412 2.96272 29082 ft 473 kts 164°
2026-04-16 11:04 47.13283 2.97769 29355 ft 473 kts 164°
2026-04-16 11:04 47.10151 2.99245 29649 ft 473 kts 165°
2026-04-16 11:05 47.06998 3.00624 29944 ft 472 kts 166°
2026-04-16 11:05 47.03838 3.01915 30222 ft 472 kts 167°
2026-04-16 11:05 47.00671 3.03164 30477 ft 472 kts 167°
2026-04-16 11:05 46.97500 3.04412 30701 ft 472 kts 167°
2026-04-16 11:06 46.94337 3.05672 30931 ft 472 kts 167°
2026-04-16 11:06 46.91170 3.06951 31156 ft 472 kts 167°
2026-04-16 11:06 46.88008 3.08244 31394 ft 472 kts 166°
2026-04-16 11:06 46.84846 3.09548 31623 ft 472 kts 166°
2026-04-16 11:07 46.81693 3.10849 31851 ft 472 kts 166°
2026-04-16 11:07 46.78570 3.12131 32086 ft 472 kts 167°
2026-04-16 11:07 46.75416 3.13423 32313 ft 472 kts 167°
2026-04-16 11:07 46.72252 3.14714 32537 ft 472 kts 167°
2026-04-16 11:08 46.69089 3.15999 32764 ft 472 kts 167°
2026-04-16 11:08 46.65924 3.17284 32992 ft 472 kts 167°
2026-04-16 11:08 46.62763 3.18566 33231 ft 472 kts 167°
2026-04-16 11:08 46.59606 3.19849 33477 ft 471 kts 167°
2026-04-16 11:09 46.56444 3.21133 33718 ft 471 kts 167°
2026-04-16 11:09 46.53287 3.22411 33959 ft 471 kts 167°
2026-04-16 11:09 46.50132 3.23683 34189 ft 471 kts 167°
2026-04-16 11:09 46.46972 3.24954 34396 ft 471 kts 167°
2026-04-16 11:10 46.43816 3.26219 34595 ft 471 kts 167°
2026-04-16 11:10 46.40660 3.27482 34789 ft 471 kts 167°
2026-04-16 11:10 46.37497 3.28748 34984 ft 471 kts 167°
2026-04-16 11:10 46.34336 3.30015 35178 ft 471 kts 167°
2026-04-16 11:11 46.31175 3.31285 35280 ft 473 kts 167°
2026-04-16 11:11 46.24822 3.33836 35302 ft 475 kts 167°
2026-04-16 11:12 46.18443 3.36386 35301 ft 476 kts 167°
2026-04-16 11:12 46.12058 3.38918 35303 ft 476 kts 167°
2026-04-16 11:13 46.05661 3.41449 35301 ft 477 kts 167°
2026-04-16 11:13 45.99256 3.43990 35291 ft 477 kts 167°
2026-04-16 11:14 45.92894 3.46507 35286 ft 478 kts 167°
2026-04-16 11:14 45.86558 3.49397 35284 ft 480 kts 156°
2026-04-16 11:15 45.80827 3.54295 35274 ft 482 kts 147°
2026-04-16 11:15 45.75218 3.59590 35267 ft 482 kts 147°
2026-04-16 11:16 45.69606 3.64864 35257 ft 483 kts 147°
2026-04-16 11:16 45.63990 3.70121 35253 ft 483 kts 147°
2026-04-16 11:17 45.58363 3.75374 35252 ft 483 kts 147°
2026-04-16 11:17 45.52734 3.80628 35250 ft 484 kts 147°
2026-04-16 11:18 45.47097 3.85876 35253 ft 484 kts 147°
2026-04-16 11:18 45.41456 3.91105 35250 ft 484 kts 147°
2026-04-16 11:19 45.36157 3.96886 35251 ft 483 kts 133°
2026-04-16 11:19 45.32011 4.04352 35248 ft 481 kts 124°
2026-04-16 11:20 45.28084 4.12065 35249 ft 482 kts 124°
2026-04-16 11:20 45.24136 4.19754 35250 ft 482 kts 124°
2026-04-16 11:21 45.20185 4.27430 35247 ft 482 kts 124°
2026-04-16 11:21 45.16233 4.35107 35239 ft 482 kts 124°
2026-04-16 11:22 45.12280 4.42764 35239 ft 482 kts 124°
2026-04-16 11:22 45.08136 4.50225 35233 ft 483 kts 128°
2026-04-16 11:23 45.03690 4.57351 35228 ft 483 kts 130°
2026-04-16 11:23 44.99199 4.64400 35227 ft 483 kts 129°
2026-04-16 11:24 44.94806 4.71483 35225 ft 482 kts 128°
2026-04-16 11:24 44.90428 4.78649 35223 ft 482 kts 128°
2026-04-16 11:25 44.86049 4.85768 35218 ft 479 kts 129°
2026-04-16 11:25 44.81662 4.92837 35220 ft 479 kts 130°
2026-04-16 11:26 44.77276 4.99883 35208 ft 479 kts 129°
2026-04-16 11:26 44.73627 5.05746 35204 ft 479 kts 129°
2026-04-16 11:27 44.69238 5.12787 35192 ft 479 kts 129°
2026-04-16 11:27 44.64844 5.19810 35180 ft 479 kts 129°
2026-04-16 11:28 44.60445 5.26824 35169 ft 478 kts 129°
2026-04-16 11:28 44.56054 5.33820 35166 ft 478 kts 129°
2026-04-16 11:29 44.51648 5.40808 35163 ft 478 kts 129°
2026-04-16 11:29 44.47243 5.47779 35156 ft 478 kts 129°
2026-04-16 11:30 44.42832 5.54741 35149 ft 478 kts 129°
2026-04-16 11:30 44.38428 5.61703 35144 ft 477 kts 126°
2026-04-16 11:31 44.34667 5.69219 35144 ft 475 kts 121°
2026-04-16 11:31 44.30971 5.76861 35148 ft 475 kts 121°
2026-04-16 11:32 44.27265 5.84471 35149 ft 474 kts 121°
2026-04-16 11:32 44.23544 5.92069 35142 ft 474 kts 121°
2026-04-16 11:33 44.19835 5.99655 35150 ft 474 kts 121°
2026-04-16 11:33 44.16117 6.07243 35143 ft 474 kts 121°
2026-04-16 11:34 44.12399 6.14816 35143 ft 473 kts 122°
2026-04-16 11:34 44.08674 6.22369 35144 ft 473 kts 122°
2026-04-16 11:35 44.04948 6.29909 35146 ft 473 kts 122°
2026-04-16 11:35 44.01216 6.37441 35148 ft 473 kts 122°
2026-04-16 11:36 43.97481 6.44950 35144 ft 473 kts 122°
2026-04-16 11:36 43.93740 6.52450 35143 ft 472 kts 123°
2026-04-16 11:37 43.90002 6.59935 35142 ft 472 kts 123°
2026-04-16 11:37 43.86260 6.67412 35142 ft 471 kts 123°
2026-04-16 11:38 43.82549 6.74813 35141 ft 471 kts 123°
2026-04-16 11:38 43.78806 6.82242 35140 ft 470 kts 124°
2026-04-16 11:39 43.75059 6.89658 35144 ft 470 kts 124°
2026-04-16 11:39 43.71196 6.96933 35137 ft 470 kts 130°
2026-04-16 11:40 43.66937 7.03779 35140 ft 470 kts 130°
2026-04-16 11:40 43.62675 7.10610 35144 ft 469 kts 130°
2026-04-16 11:41 43.58407 7.17425 35143 ft 469 kts 130°
2026-04-16 11:41 43.54490 7.24583 35148 ft 468 kts 118°
2026-04-16 11:42 43.51766 7.32630 35145 ft 467 kts 114°
2026-04-16 11:42 43.49085 7.40767 35146 ft 466 kts 114°
2026-04-16 11:43 43.46399 7.48887 35141 ft 466 kts 114°
2026-04-16 11:43 43.43706 7.57012 35144 ft 466 kts 114°
2026-04-16 11:44 43.41013 7.65108 35142 ft 465 kts 114°
2026-04-16 11:44 43.38320 7.73197 35141 ft 465 kts 114°
2026-04-16 11:45 43.35626 7.81270 35140 ft 465 kts 114°
2026-04-16 11:45 43.32914 7.89339 34966 ft 465 kts 114°
2026-04-16 11:45 43.31561 7.93366 34719 ft 464 kts 114°
2026-04-16 11:46 43.30206 7.97387 34489 ft 465 kts 114°
2026-04-16 11:46 43.28863 8.01360 34246 ft 465 kts 114°
2026-04-16 11:46 43.27500 8.05386 33906 ft 465 kts 115°
2026-04-16 11:46 43.26130 8.09430 32783 ft 471 kts 114°
2026-04-16 11:47 43.24753 8.13507 31826 ft 472 kts 114°
2026-04-16 11:47 43.23379 8.17607 31068 ft 470 kts 113°
2026-04-16 11:47 43.22067 8.21622 30955 ft 454 kts 112°
2026-04-16 11:47 43.20823 8.25511 30845 ft 439 kts 112°
2026-04-16 11:48 43.19604 8.29366 30751 ft 442 kts 111°
2026-04-16 11:48 43.17149 8.37134 30565 ft 445 kts 112°
2026-04-16 11:49 43.14653 8.44911 30375 ft 446 kts 112°
2026-04-16 11:49 43.12137 8.52671 30185 ft 446 kts 112°
2026-04-16 11:49 43.10868 8.56586 28830 ft 457 kts 112°
2026-04-16 11:50 43.09564 8.60619 27717 ft 467 kts 112°
2026-04-16 11:50 43.08237 8.64707 27424 ft 473 kts 112°
2026-04-16 11:50 43.06894 8.68830 27175 ft 476 kts 112°
2026-04-16 11:50 43.05560 8.72918 26917 ft 477 kts 112°
2026-04-16 11:51 43.04210 8.77058 26050 ft 477 kts 112°
2026-04-16 11:51 43.02856 8.81214 24838 ft 480 kts 112°
2026-04-16 11:51 43.01499 8.85374 23973 ft 477 kts 112°
2026-04-16 11:51 43.00155 8.89483 23086 ft 472 kts 112°
2026-04-16 11:52 42.98821 8.93546 22325 ft 465 kts 112°
2026-04-16 11:52 42.97506 8.97545 21595 ft 458 kts 112°
2026-04-16 11:52 42.96205 9.01486 20874 ft 453 kts 112°
2026-04-16 11:52 42.94915 9.05390 20161 ft 448 kts 112°
2026-04-16 11:53 42.93640 9.09247 19487 ft 444 kts 112°
2026-04-16 11:53 42.92380 9.13062 18823 ft 439 kts 112°
2026-04-16 11:53 42.91045 9.16800 18134 ft 437 kts 118°
2026-04-16 11:53 42.89290 9.20159 17518 ft 433 kts 129°
2026-04-16 11:54 42.87143 9.23003 16933 ft 429 kts 140°
2026-04-16 11:54 42.84683 9.25273 16363 ft 425 kts 148°
2026-04-16 11:54 42.82191 9.27288 15824 ft 420 kts 148°
2026-04-16 11:54 42.79704 9.29312 15450 ft 411 kts 148°
2026-04-16 11:55 42.77298 9.31274 15329 ft 396 kts 148°
2026-04-16 11:55 42.74978 9.33169 15202 ft 382 kts 148°
2026-04-16 11:55 42.72738 9.34997 15083 ft 369 kts 148°
2026-04-16 11:55 42.70594 9.36738 14954 ft 347 kts 148°
2026-04-16 11:56 42.68589 9.38363 14830 ft 325 kts 148°
2026-04-16 11:56 42.66707 9.39890 14707 ft 305 kts 147°
2026-04-16 11:56 42.64928 9.41335 14471 ft 291 kts 147°
2026-04-16 11:56 42.63249 9.42699 14337 ft 272 kts 147°
2026-04-16 11:57 42.61651 9.43995 14142 ft 265 kts 147°
2026-04-16 11:57 42.60083 9.45267 13897 ft 262 kts 147°
2026-04-16 11:57 42.58525 9.46529 13594 ft 260 kts 148°
2026-04-16 11:57 42.56905 9.47612 13286 ft 260 kts 156°
2026-04-16 11:58 42.55192 9.48398 12984 ft 259 kts 161°
2026-04-16 11:58 42.53467 9.49116 12667 ft 259 kts 161°
2026-04-16 11:58 42.51753 9.49833 12382 ft 258 kts 161°
2026-04-16 11:58 42.50047 9.50547 12084 ft 256 kts 161°
2026-04-16 11:59 42.48344 9.51259 11778 ft 256 kts 161°
2026-04-16 11:59 42.46646 9.51970 11501 ft 255 kts 161°
2026-04-16 11:59 42.44980 9.52667 11223 ft 253 kts 161°
2026-04-16 11:59 42.43277 9.53379 10936 ft 252 kts 161°
2026-04-16 12:00 42.41651 9.54058 10815 ft 244 kts 161°
2026-04-16 12:00 42.40916 9.54364 10759 ft 240 kts 161°
2026-04-16 12:14 42.39429 9.54954 10369 ft 243 kts 162°
2026-04-16 12:14 42.37841 9.55609 10247 ft 234 kts 162°
2026-04-16 12:14 42.36311 9.56252 10126 ft 225 kts 162°
2026-04-16 12:15 42.34843 9.56870 9935 ft 218 kts 162°
2026-04-16 12:15 42.33404 9.57476 9663 ft 216 kts 162°
2026-04-16 12:15 42.31972 9.58075 9374 ft 215 kts 162°
2026-04-16 12:15 42.30554 9.58653 9109 ft 211 kts 163°
2026-04-16 12:16 42.29147 9.59227 8756 ft 211 kts 163°
2026-04-16 12:16 42.27742 9.59806 8406 ft 211 kts 163°
2026-04-16 12:16 42.26342 9.60389 8066 ft 210 kts 163°
2026-04-16 12:16 42.24950 9.60973 7733 ft 209 kts 163°
2026-04-16 12:17 42.23566 9.61558 7397 ft 208 kts 162°
2026-04-16 12:17 42.22187 9.62145 7076 ft 207 kts 163°
2026-04-16 12:17 42.20812 9.62738 6762 ft 207 kts 163°
2026-04-16 12:17 42.19481 9.63394 6433 ft 207 kts 149°
2026-04-16 12:18 42.18632 9.64863 6104 ft 201 kts 101°
2026-04-16 12:18 42.18838 9.66632 5760 ft 192 kts 52°
2026-04-16 12:18 42.19885 9.67651 5414 ft 188 kts 20°
2026-04-16 12:18 42.21149 9.68100 5070 ft 188 kts
2026-04-16 12:19 42.22436 9.67959 4751 ft 187 kts 341°
2026-04-16 12:19 42.23505 9.67000 4449 ft 187 kts 315°
2026-04-16 12:19 42.24402 9.65734 4127 ft 185 kts 316°
2026-04-16 12:19 42.25263 9.64518 3967 ft 173 kts 316°
2026-04-16 12:20 42.26073 9.63372 3786 ft 166 kts 316°
2026-04-16 12:20 42.26862 9.62256 3536 ft 162 kts 316°
2026-04-16 12:20 42.27642 9.61156 3177 ft 163 kts 316°
2026-04-16 12:20 42.28418 9.60060 3024 ft 161 kts 316°
2026-04-16 12:21 42.29334 9.59205 3021 ft 161 kts 340°
2026-04-16 12:21 42.30400 9.58770 3020 ft 160 kts 345°
2026-04-16 12:21 42.31463 9.58329 3015 ft 160 kts 343°
2026-04-16 12:21 42.32533 9.57876 3017 ft 160 kts 344°
2026-04-16 12:22 42.33598 9.57428 3015 ft 161 kts 344°
2026-04-16 12:22 42.34666 9.56983 3013 ft 160 kts 344°
2026-04-16 12:22 42.35729 9.56539 3016 ft 160 kts 343°
2026-04-16 12:22 42.36798 9.56094 3020 ft 161 kts 344°
2026-04-16 12:23 42.37854 9.55653 3019 ft 161 kts 345°
2026-04-16 12:23 42.38925 9.55207 3007 ft 161 kts 344°
2026-04-16 12:23 42.39993 9.54764 2878 ft 161 kts 344°
2026-04-16 12:23 42.41058 9.54329 2691 ft 160 kts 345°
2026-04-16 12:24 42.42106 9.53908 2525 ft 153 kts 344°
2026-04-16 12:24 42.43082 9.53415 2531 ft 146 kts 340°
2026-04-16 12:24 42.44053 9.52965 2285 ft 146 kts 346°
2026-04-16 12:24 42.45039 9.52610 2068 ft 146 kts 347°
2026-04-16 12:25 42.46017 9.52264 1716 ft 142 kts 347°
2026-04-16 12:25 42.46635 9.52003 1713 ft 141 kts 343°
2026-04-16 12:25 42.47569 9.51576 1481 ft 145 kts 343°
2026-04-16 12:25 42.48524 9.51165 1287 ft 143 kts 346°
2026-04-16 12:26 42.49472 9.50794 995 ft 139 kts 346°
2026-04-16 12:26 42.50395 9.50418 817 ft 138 kts 345°
2026-04-16 12:26 42.51308 9.50016 642 ft 137 kts 344°
2026-04-16 12:26 42.52223 9.49643 466 ft 138 kts 346°
2026-04-16 12:27 42.53141 9.49263 304 ft 140 kts 346°
2026-04-16 12:27 42.54058 9.48882 96 ft 136 kts 343°
2026-04-16 12:27 42.54875 9.48538 31 ft 92 kts 343°
2026-04-16 12:27 42.55261 9.48378 31 ft 44 kts 344°
2026-04-16 12:28 42.55536 9.48263 27 ft 40 kts 342°
2026-04-16 12:28 42.55792 9.48156 26 ft 37 kts 343°
2026-04-16 12:28 42.55980 9.48066 23 ft 19 kts 316°
2026-04-16 12:28 42.55968 9.47996 24 ft 12 kts 232°
2026-04-16 12:29 42.55920 9.47878 26 ft 17 kts 217°
2026-04-16 12:29 42.55809 9.47893 27 ft 16 kts 163°
2026-04-16 12:29 42.55683 9.47940 27 ft 23 kts 164°
2026-04-16 12:29 42.55516 9.48011 27 ft 26 kts 160°
2026-04-16 12:30 42.55347 9.48085 28 ft 26 kts 163°
2026-04-16 12:30 42.55178 9.48155 29 ft 25 kts 162°
2026-04-16 12:30 42.55011 9.48223 30 ft 25 kts 167°
2026-04-16 12:30 42.54853 9.48271 30 ft 19 kts 163°
2026-04-16 12:31 42.54747 9.48316 31 ft 12 kts 168°
2026-04-16 12:31 42.54727 9.48269 31 ft 5 kts 266°
2026-04-16 12:31 42.54733 9.48226 31 ft 4 kts 282°
2026-04-16 12:31 42.54737 9.48200 30 ft 0 kts 282°
2026-04-16 12:32 42.54737 9.48198 30 ft 0 kts 282°